Regional Weather Roundup
Issued by NWS

Home | Current Version | Previous Version | Graphics & Text | Print | Product List | Glossary On
Versions: 1 2 3 4 5 6 7 8 9 10 11 12 13 14 15 16 17 18 19 20 21 22 23 24 25 26 27 28 29 30 31 32 33 34 35 36 37 38 39 40 41 42 43 44 45 46 47 48 49 50
000
ASUS43 KMKX 262321
RWRWI

WISCONSIN REGIONAL WEATHER ROUNDUP
NATIONAL WEATHER SERVICE MILWAUKEE/SULLIVAN WI
600 PM CDT MON SEP 26 2016

NOTE: "FAIR" INDICATES FEW OR NO CLOUDS BELOW 12,000 FEET WITH NO
SIGNIFICANT WEATHER AND/OR OBSTRUCTIONS TO VISIBILITY.

WIZ001-002-006>008-014>016-023>028-270000-
NORTHWEST WISCONSIN

CITY           SKY/WX    TMP DP  RH WIND       PRES   REMARKS
SUPERIOR ARPT  DRIZZLE   55  45  67 W13       29.76R
ASHLAND        LGT RAIN  51  46  83 SW10G22   29.73S
HAYWARD        LGT RAIN  54  42  64 VRB6      29.78S
SIREN          CLOUDY    59  38  46 W9G18     29.82R
CUMBERLAND     PTCLDY    55  36  47 W16G31    29.82S
RICE LAKE      MOCLDY    60  37  41 W13G25    29.83F
CHETEK         NOT AVBL
LADYSMITH      CLOUDY    58  40  52 W14G26    29.81F
EAU CLAIRE     CLEAR     61  38  42 W16       29.84S
MENOMONIE      PTCLDY    62  38  41 W14G24    29.86S
NEW RICHMOND   PTCLDY    61  35  37 W12G28    29.86S
OSCEOLA        PTCLDY    62  35  36 W18G24    29.88S
$$

WIZ003>005-009-010-017-018-270000-
NORTH CENTRAL WISCONSIN

CITY           SKY/WX    TMP DP  RH WIND       PRES   REMARKS
MANITOWISH WTR NOT AVBL
ARBOR VITAE    DRIZZLE   52  47  84 W13       29.74S
WOODRUFF       DRIZZLE   52  47  84 W13       29.74S
RHINELANDER    CLOUDY    50  46  86 W12       29.76F
EAGLE RIVER    DRIZZLE   48  44  85 W13G21    29.73S
LAND O LAKES   DRIZZLE   48  46  92 W13G22    29.73S
PHILLIPS       CLOUDY    53  41  63 W9        29.77S
TOMAHAWK       CLOUDY    50  43  76 W5        29.78F
MEDFORD        CLOUDY    55  40  55 W13G22    29.80S
MERRILL        CLOUDY    54  43  66 W10G20    29.80S
$$

WIZ029-030-035-036-043>047-270000-
CENTRAL WISCONSIN

CITY           SKY/WX    TMP DP  RH WIND       PRES   REMARKS
WAUSAU         CLOUDY    56  39  53 W17G23    29.79S
MOSINEE        MOCLDY    55  39  54 W17G23    29.83R
MARSHFIELD     PTCLDY    58  38  47 W15       29.83R
STEVENS POINT  CLOUDY    57  38  48 W12G24    29.83S
WAUPACA        CLOUDY    62  38  41 W15G21    29.83S
WAUTOMA        CLOUDY    61  39  44 W17       29.85R
WISC RAPIDS    PTCLDY    60  39  45 W13G25    29.86R
CAMP DOUGLAS   PTCLDY    60  40  47 W17G24    29.86S
$$

WIZ011>013-019>022-031-037>040-048>050-270000-
NORTHEAST WISCONSIN

CITY           SKY/WX    TMP DP  RH WIND       PRES   REMARKS
ANTIGO         CLOUDY    51  42  72 W13G20    29.79F
SHAWANO        CLOUDY    59  41  50 W10G17    29.80S
OCONTO         NOT AVBL
STURGEON BAY   LGT RAIN  58  42  55 W21G30    29.77R
GREEN BAY      CLOUDY    60  41  49 W18G26    29.80R
MANITOWOC      MOCLDY    62  38  40 W13G26    29.81R
APPLETON       MOCLDY    59  34  38 W18G29    29.81R
CLINTONVILLE   NOT AVBL
OSHKOSH        MOCLDY    61  38  42 W15G22    29.82R
$$

WIZ032>034-041-042-053>061-270000-
SOUTHWEST WISCONSIN

CITY           SKY/WX    TMP DP  RH WIND       PRES   REMARKS
LA CROSSE      CLEAR     67  34  29 NW14      29.87S
SPARTA         CLEAR     62  40  44 W10       29.88F
VIROQUA        CLEAR     64  29  27 W15G23    29.89S
BOSCOBEL       CLEAR     68  33  27 W12G24    29.90S
PRAIRIE DU CHI CLEAR     68  30  24 W13       29.91S
PLATTEVILLE    CLEAR     66  35  31 W18G29    29.93F
$$

WIZ056-057-062-063-064-067-068-270000-
SOUTH CENTRAL WISCONSIN

CITY           SKY/WX    TMP DP  RH WIND       PRES   REMARKS
REEDSBURG      NOT AVBL
BARABOO/DELLS  CLEAR     63  33  32 W12G18    29.87S
LONE ROCK      PTCLDY    66  35  31 W13       29.89R
MINERAL POINT  CLEAR     64  32  29 W14G22    29.91S
MADISON        MOCLDY    64  34  32 W10G18    29.87S
MIDDLETON      NOT AVBL
WATERTOWN      MOCLDY    64  37  37 W13G18    29.86S
MONROE         CLEAR     64  32  29 W18G28    29.91S
JANESVILLE     PTCLDY    66  32  28 W17G28    29.90S
$$

WIZ051-052-058>065-066-070>072-270000-
SOUTHEAST WISCONSIN

CITY           SKY/WX    TMP DP  RH WIND       PRES   REMARKS
MILWAUKEE      PTCLDY    66  34  30 W14       29.87S
WAUKESHA       MOCLDY    61  34  36 W12G25    29.88S
MILWAUKEE/TIMM PTCLDY    64  30  27 W16       29.87S
RACINE         PTCLDY    65  34  31 W9        29.89S
BURLINGTON     CLEAR     63  32  31 W15G22    29.89S
KENOSHA        PTCLDY    64  36  35 W13G24    29.89S
FOND DU LAC    PTCLDY    62  38  40 W13G21    29.84R
SHEBOYGAN      PTCLDY    62  36  37 W15G25    29.83R
WEST BEND      PTCLDY    61  32  33 W15G26    29.85S
JUNEAU         MOCLDY    62  37  39 W9        29.87R
$$

LSZ147-162-270000-
LAKE SUPERIOR

STATION/POSITION TIME  TEMP    WIND        PRES    WAVE
                       AIR SEA DIR/SP/G            HT/PER
                 (UTC) (F)     (DEG/KT/KT) (MB)    (FT/S)
W MID LAKE BUOY  2250   51 47  250/ 25/ 31 1001.1R   8/ 7
DEVILS ISLAND    2300   54     250/ 32/ 35 1004.0F
SAXON HARBOR     2240   52     220/  6/ 10 1006.1S
$$

LMZ867-665-643>646-270000-
LAKE MICHIGAN

STATION/POSITION TIME  TEMP    WIND        PRES    WAVE
                       AIR SEA DIR/SP/G            HT/PER
                 (UTC) (F)     (DEG/KT/KT) (MB)    (FT/S)
CHAMBERS ISLAND  2240   58     220/ 13/ 25 1006.8R
N MID LAKE BUOY  2250   61 67  240/ 29/ 35 1004.6F   7/ 6
NORTHPORT PIER   2300   59     250/  8     1006.8R
KEWAUNEE LAKESHO 2200   62     260/ 15/ 23 1007.8S
SHEBOYGAN LAKESH 2300   63     270/ 13/ 16 1009.6R
PORT WASHINGTON  2200   66     260/  9/ 18 1011.2F
ATWATER BUOY     2300   64 54  270/ 12/ 14 1011.1S
MILWAUKEE LAKESH 2310   65     270/ 12/ 16   N/A
S MID LAKE BUOY  2250   67 71  260/ 21/ 27 1011.1R   6/ 5
KENOSHA   LAKESH 2300   67     270/ 14/ 28 1011.9S
$$

TC  - TEMPERATURE IN CELSIUS
VSB - VISIBILITY IN STATUTE MILES
WCI - WIND CHILL INDEX
HX  - HEAT INDEX





USA.gov is the U.S. government's official web portal to all federal, state and local government web resources and services.